Theta_e
347 350 351 353 353 355 356 355 356 356 358 358 359 360 361 360 360 360 364 364 363 367 366 362 362 363 364 361 358 362 366 368 367 366 366 366 368 369 369 368 368 367 366 366 363 360 363 364 363 363 362 360 357 351 352 352 353 353 352 352 349 348 346 347 347 346 343 341 344 344 345 347 346 347 345 344 343 342 341 342 342 343 344 344 347
346 347 350 352 352 353 354 354 355 353 356 357 358 359 361 362 361 361 362 365 364 364 364 364 364 364 362 359 357 358 362 363 366 366 366 366 370 371 370 370 368 367 366 367 365 364 364 361 362 362 360 354 353 354 354 351 351 350 349 346 349 346 345 344 346 345 341 336 335 337 339 343 345 344 341 342 341 340 340 341 341 337 336 340 342
345 347 349 349 350 352 354 354 355 355 356 356 359 360 361 361 362 363 362 363 364 366 365 364 365 367 364 360 359 357 362 367 366 367 367 364 366 371 370 369 369 368 368 367 361 360 360 361 359 358 355 354 353 353 352 350 349 347 348 346 342 346 345 347 348 347 337 339 340 336 332 331 340 340 340 340 337 337 337 335 335 333 336 342 343
344 346 347 348 348 350 353 355 356 356 356 356 357 358 359 361 363 363 364 365 364 366 366 367 367 368 369 367 366 363 362 363 364 365 366 365 364 368 370 369 364 361 360 359 360 360 359 358 356 354 355 356 354 351 351 350 349 348 347 348 347 341 339 341 346 347 345 341 332 332 332 330 325 334 335 337 337 334 333 332 334 334 335 340 338
345 346 348 348 347 347 351 355 356 356 356 356 356 357 358 361 363 365 364 365 365 365 367 368 368 369 371 371 370 369 365 362 360 358 360 361 360 360 360 362 362 360 359 359 358 359 359 358 356 354 354 354 354 352 349 349 350 349 349 347 346 342 338 339 344 345 344 345 339 334 331 328 328 331 330 336 336 334 332 331 333 332 333 337 336
348 347 347 347 347 347 350 353 354 355 356 357 357 358 360 361 364 365 365 365 364 366 368 368 366 363 367 363 357 356 355 356 353 354 354 356 356 357 360 359 359 360 359 358 359 358 359 357 356 354 353 354 353 350 351 349 349 348 347 347 345 346 344 337 338 344 344 345 345 342 340 333 332 335 328 329 336 334 334 331 333 331 336 336 336
349 349 348 346 347 347 348 351 353 353 355 357 358 359 361 362 365 366 366 366 366 366 368 368 365 363 362 360 358 356 354 355 359 358 357 358 360 360 358 360 361 359 358 359 359 359 358 357 357 355 354 353 353 352 350 348 347 349 349 348 346 347 345 340 338 337 343 343 344 343 343 342 340 334 329 330 326 330 331 328 329 331 329 330 331
346 349 349 348 347 347 348 351 353 352 355 356 357 359 361 364 365 366 366 366 367 368 367 368 364 363 363 362 360 358 356 357 359 361 362 362 359 360 359 358 361 360 358 360 360 360 359 357 357 355 353 352 351 350 349 348 349 350 350 349 349 348 345 342 339 338 337 337 343 342 341 342 342 338 335 333 328 325 327 328 328 328 330 328 328
345 347 348 348 348 348 349 350 353 353 353 355 357 359 361 364 366 367 366 368 367 369 369 368 366 364 363 362 359 361 361 359 359 360 359 361 359 360 359 357 360 359 359 359 360 360 358 357 357 356 355 352 352 349 347 348 349 349 349 348 347 347 346 345 343 341 340 337 339 340 340 338 337 336 337 337 331 327 324 324 327 330 329 331 330
345 347 349 349 350 350 350 351 352 352 354 358 358 359 361 364 366 367 367 367 368 369 370 369 368 366 363 362 361 360 361 361 359 358 360 361 360 359 359 359 357 357 357 358 360 360 358 358 356 356 354 349 348 347 347 347 348 349 349 348 347 346 347 345 344 343 342 341 341 340 337 336 336 334 333 333 333 330 323 322 324 325 326 329 333
344 345 348 350 351 351 351 351 352 353 353 355 357 359 361 363 365 367 369 368 369 368 370 368 368 367 365 364 363 362 362 361 359 359 359 360 359 358 359 358 357 357 356 359 358 359 359 358 356 354 351 349 348 347 347 345 345 346 347 348 347 346 345 344 343 344 343 342 341 340 338 336 335 332 332 332 331 329 328 325 325 326 327 326 332
345 345 345 348 350 351 351 350 352 354 355 355 357 360 361 362 365 367 369 370 369 369 369 367 366 366 366 365 363 364 363 360 360 360 360 359 358 357 358 358 357 356 357 355 356 353 357 355 355 352 349 348 347 349 347 346 345 345 346 347 346 346 347 345 344 343 343 342 341 337 336 337 337 334 335 336 333 332 331 328 327 330 332 332 334
344 346 346 346 348 349 349 351 354 356 356 357 357 357 360 363 366 366 368 371 370 370 369 370 367 366 366 365 364 364 365 364 363 362 362 359 358 357 358 356 357 356 355 354 353 354 354 354 353 349 347 348 349 349 347 348 347 344 346 345 344 344 343 345 342 343 342 342 338 338 337 337 336 338 336 334 335 335 334 328 328 328 326 328 332
344 345 346 347 348 349 350 351 354 356 357 357 359 358 359 362 365 365 367 370 372 371 370 369 369 368 368 366 365 363 363 364 363 362 363 362 361 360 357 356 357 356 355 355 354 354 352 353 352 350 352 350 349 349 348 348 347 346 345 344 343 344 344 344 344 343 343 343 342 338 337 336 336 338 338 337 334 334 332 330 330 330 331 327 332
345 346 346 347 348 350 350 351 354 356 356 356 358 360 361 362 364 366 366 369 371 371 370 369 369 369 369 367 364 364 362 362 363 364 364 363 363 362 362 359 357 358 356 358 358 356 355 353 352 350 349 350 348 347 346 347 347 347 345 345 344 344 345 344 343 342 341 341 342 341 339 338 337 339 337 337 337 336 335 333 331 327 326 327 328
344 346 346 348 350 351 350 351 353 355 358 357 359 361 360 362 364 367 367 368 370 371 370 370 370 370 369 367 364 364 364 364 364 365 367 366 366 364 363 362 360 359 359 359 357 356 355 352 351 350 351 349 347 347 346 345 346 345 344 344 344 344 344 344 344 343 341 342 341 342 342 337 339 338 339 339 339 339 337 336 334 332 327 324 328
345 345 347 350 351 352 351 353 352 354 355 356 359 362 362 362 364 366 368 368 370 372 370 371 371 370 369 367 365 364 362 363 363 364 364 366 366 365 362 362 362 361 359 358 357 356 355 353 351 348 349 349 346 346 345 345 346 345 344 344 343 341 345 345 342 342 342 339 340 340 340 339 339 341 341 340 342 343 341 338 338 334 331 327 324
346 348 350 350 351 352 352 352 353 354 355 357 360 363 363 363 364 365 367 367 369 370 370 370 370 369 369 367 366 365 363 363 364 365 366 365 367 366 364 361 360 359 358 356 356 354 353 352 350 348 348 348 346 345 345 344 344 342 343 343 343 345 344 345 344 342 342 341 340 340 339 337 340 339 338 340 341 343 343 344 342 340 340 332 328
344 346 348 350 351 352 353 352 352 355 358 359 360 362 363 364 365 363 366 367 367 368 370 370 371 369 368 367 367 365 366 365 365 366 367 365 365 365 363 361 361 360 357 356 354 353 351 350 350 348 347 347 346 344 344 344 344 343 342 341 343 344 342 342 343 343 341 341 340 339 339 338 340 339 339 339 341 343 345 345 345 340 337 336 332
342 344 346 349 350 351 352 351 351 354 356 357 358 359 359 362 364 364 365 368 369 369 370 369 370 369 369 369 368 367 367 365 365 365 365 364 365 363 362 358 357 356 355 355 353 351 351 349 348 346 346 346 344 343 342 343 344 344 343 340 341 343 342 341 340 340 339 340 339 338 339 338 339 339 339 339 339 342 343 342 342 340 339 338 336
343 344 346 348 350 350 351 353 353 354 357 357 356 357 357 359 361 362 364 364 365 367 368 370 370 369 370 369 368 366 364 363 363 366 365 366 365 363 361 358 357 354 354 352 351 350 349 349 348 348 347 347 346 344 343 343 344 344 343 343 343 343 341 340 340 340 339 339 339 338 338 338 340 338 338 337 336 337 338 338 341 339 337 340 337
344 344 345 346 349 350 351 353 354 353 354 355 354 356 356 357 357 360 360 361 360 364 368 370 371 370 369 369 368 366 364 363 364 364 364 365 364 362 362 358 357 356 354 351 351 348 347 348 347 348 348 347 346 346 343 342 343 343 343 342 341 342 342 340 340 340 340 339 339 339 338 338 339 338 338 336 336 334 335 333 333 334 335 336 338
343 344 343 345 349 351 351 354 355 354 355 355 355 354 355 356 356 358 358 359 358 361 366 370 370 370 370 369 367 365 364 364 361 361 362 362 362 362 361 358 355 354 354 352 350 348 348 349 348 349 348 346 346 345 344 342 342 343 343 341 340 341 340 339 338 339 339 339 338 338 337 337 338 337 337 336 336 336 336 335 334 334 334 334 335
345 344 343 345 347 351 353 353 354 355 356 357 356 356 356 356 355 356 357 358 358 359 362 368 369 369 369 368 366 365 362 360 359 360 360 360 359 360 359 357 353 351 351 352 349 348 348 350 348 346 347 346 345 345 344 341 342 344 343 341 341 341 340 339 338 339 338 338 337 337 336 336 337 336 336 335 336 336 336 336 336 337 337 336 337
345 344 345 346 347 350 352 354 356 356 356 358 358 357 356 357 356 355 356 358 359 361 361 365 367 365 366 367 365 362 361 361 360 359 359 358 357 355 354 351 350 349 350 349 349 351 350 350 348 347 346 346 344 344 342 340 343 345 344 341 341 340 340 340 340 339 338 338 337 336 336 336 336 335 335 335 336 337 338 338 337 338 337 338 338
348 347 346 347 350 352 354 356 357 357 357 359 360 358 357 357 358 357 356 358 359 360 361 362 365 364 365 365 365 363 362 360 358 358 356 357 352 350 349 348 347 345 345 346 347 349 348 348 349 346 346 346 345 343 342 343 343 344 343 342 340 339 338 339 340 339 339 339 338 337 336 336 335 334 334 335 337 337 339 340 340 340 339 338 338
346 348 349 352 353 353 355 357 357 357 359 360 359 358 358 360 360 358 358 359 362 361 362 361 364 363 364 365 364 364 361 358 358 359 355 349 346 345 345 344 345 343 343 343 345 346 346 348 348 346 345 345 344 345 346 347 345 344 344 343 340 338 336 337 338 338 338 338 337 337 337 337 336 337 336 336 337 337 338 339 341 341 342 340 338
348 349 350 351 354 356 357 358 358 358 359 360 361 359 359 360 360 360 359 360 361 363 363 363 364 364 365 364 364 365 362 360 358 353 346 343 344 343 343 344 344 341 342 342 341 344 347 347 347 346 345 345 346 347 348 348 347 346 344 343 342 339 336 337 339 339 338 337 337 336 335 335 336 337 338 338 339 339 341 340 340 340 339 338 336
345 349 351 354 354 356 357 358 358 359 359 359 359 359 361 362 362 363 360 360 363 364 364 363 364 364 365 367 366 362 359 359 354 351 345 342 342 342 342 342 343 342 342 342 343 345 345 345 347 346 346 346 347 345 345 346 346 346 345 343 341 340 339 337 337 337 338 338 339 337 335 335 336 339 343 344 344 341 342 336 336 336 335 334 333
344 348 350 353 355 357 358 359 359 358 358 358 358 360 359 360 361 361 362 361 363 364 365 364 364 365 366 365 362 360 359 357 353 349 345 340 339 341 342 342 345 345 345 343 343 344 344 343 344 345 345 344 341 341 338 333 338 345 345 344 343 342 340 337 337 338 338 337 338 338 338 339 343 343 344 342 336 333 332 336 337 336 334 333 331
346 349 351 354 355 357 358 358 358 357 358 358 360 362 361 359 360 360 363 362 363 365 365 365 365 365 365 364 362 359 358 355 352 351 350 347 343 344 345 345 346 346 345 344 343 344 342 342 343 342 342 343 342 339 330 328 328 330 340 342 341 341 341 338 338 338 338 337 338 340 342 342 345 341 341 336 334 332 331 329 327 327 330 335 333
346 348 351 352 353 356 356 357 357 358 360 361 362 362 361 358 360 360 361 362 362 364 364 366 366 366 366 364 361 359 357 352 350 350 352 351 349 347 347 347 345 346 347 346 344 344 343 343 341 340 337 340 342 329 326 326 327 326 329 339 340 340 339 337 337 336 337 338 339 338 342 346 345 343 340 342 339 333 330 330 329 328 327 326 326
348 349 350 350 350 354 357 356 357 358 358 361 364 362 362 361 362 363 363 362 362 363 366 367 367 366 366 365 362 359 357 353 348 349 350 350 348 347 347 347 346 347 346 344 344 343 343 343 340 339 338 340 342 328 325 325 325 325 326 330 338 340 339 337 337 338 336 337 342 343 345 344 344 338 335 336 338 339 335 329 329 330 328 326 324
348 350 350 351 354 354 357 357 359 360 359 361 364 362 364 364 363 364 363 364 364 364 366 367 367 367 365 365 361 358 355 353 350 350 349 349 348 347 348 348 347 347 345 342 341 342 342 343 343 344 344 343 342 327 323 322 322 323 324 327 338 339 340 339 338 338 337 341 344 345 345 343 342 341 341 340 340 340 340 341 341 337 335 333 331
350 350 349 353 354 354 357 357 356 357 359 360 360 362 364 363 364 363 365 365 364 365 365 366 367 366 365 364 361 359 356 354 351 350 349 348 348 349 349 348 346 345 344 342 342 342 342 344 343 344 342 339 337 325 321 321 320 319 321 326 333 335 335 337 339 342 341 342 343 343 340 337 341 339 341 342 342 340 339 337 334 332 331 331 331
348 352 353 353 351 352 353 356 355 357 357 358 360 361 359 357 359 361 362 363 364 365 365 366 366 365 364 363 360 359 357 355 352 350 348 347 348 349 347 345 346 345 345 343 344 343 340 342 343 342 338 332 332 324 321 320 318 318 321 329 330 330 332 335 338 340 343 343 342 339 338 337 339 339 330 326 331 337 335 332 330 330 330 330 329
347 348 350 354 353 353 353 356 355 356 357 357 356 354 354 355 356 360 364 361 363 364 364 365 365 363 361 361 360 359 357 355 353 350 347 347 347 347 347 348 345 345 344 343 343 341 342 341 340 337 332 330 331 328 319 317 316 317 322 331 332 333 336 336 336 340 341 341 340 340 338 339 338 340 324 318 319 323 329 329 329 329 329 329 328
344 350 351 354 353 353 354 351 352 352 351 351 353 353 356 357 358 360 362 360 361 363 364 365 364 365 363 362 361 360 357 355 353 351 349 346 347 346 346 345 342 342 341 340 341 339 339 339 337 332 330 332 333 330 317 315 316 317 324 334 335 335 335 334 337 337 339 343 340 337 336 337 337 337 314 316 315 322 329 329 329 328 327 327 327
343 344 348 349 352 352 350 349 350 347 352 355 355 355 356 358 359 356 358 359 360 363 364 365 365 365 364 360 361 360 356 355 352 351 351 349 348 347 347 345 342 339 336 335 334 335 336 336 334 336 333 333 332 329 317 318 317 316 326 334 334 333 332 334 336 335 337 336 338 336 335 335 335 323 311 314 314 321 329 329 329 328 325 325 326
347 348 350 351 352 353 349 350 350 356 357 359 357 358 361 360 357 355 356 359 362 365 367 366 365 365 363 360 358 357 355 354 352 352 351 349 349 346 343 341 339 337 332 330 330 328 328 330 332 336 338 339 338 341 330 315 314 312 319 335 334 332 331 332 334 334 330 336 338 338 332 316 313 311 309 309 311 311 326 329 329 326 323 322 327
347 350 352 353 353 352 352 353 358 359 357 358 359 360 359 359 358 359 358 359 363 366 365 364 365 363 362 359 357 356 354 353 353 352 350 348 346 343 340 337 334 333 329 328 326 327 329 332 335 338 341 342 343 340 334 312 312 311 314 321 333 331 333 334 331 329 330 334 334 336 335 313 309 307 306 305 305 308 313 326 327 325 325 319 316
349 349 349 350 351 354 354 354 357 358 358 360 362 360 359 358 358 358 359 361 364 364 364 363 362 360 358 356 355 355 353 350 350 348 346 344 342 340 336 335 335 334 330 330 331 331 331 332 334 338 340 344 340 335 342 316 311 309 310 313 328 332 333 332 330 331 332 331 333 336 333 315 308 307 307 303 302 305 309 322 326 306 304 309 320
349 350 350 349 349 349 349 350 350 352 356 357 358 357 356 356 357 358 358 360 360 360 360 360 358 355 353 352 352 351 348 345 344 345 343 340 338 338 337 336 336 334 334 334 334 334 334 333 335 337 343 341 339 335 327 329 311 308 307 307 313 324 321 332 331 330 330 331 336 333 326 309 308 304 302 302 302 304 308 318 303 303 304 304 310
344 346 349 350 350 349 349 352 352 355 356 356 357 356 355 355 353 354 355 356 357 358 358 356 354 353 350 349 348 346 347 343 342 343 341 339 337 337 336 336 336 335 335 335 333 335 333 332 333 339 338 336 335 335 323 324 320 309 306 304 305 308 311 327 334 331 335 333 333 332 324 304 301 297 298 302 305 306 317 300 302 302 305 309 314
345 344 348 348 348 349 349 351 352 353 354 357 357 354 352 349 349 352 353 355 356 356 354 352 350 349 347 345 345 345 344 342 341 340 339 337 336 335 334 336 336 336 335 334 333 334 332 332 335 338 333 331 331 333 331 323 318 311 306 303 306 308 310 308 329 333 333 329 309 302 299 301 301 298 300 304 306 306 303 302 302 304 310 315 318
344 347 346 344 345 347 348 348 351 352 351 354 354 355 353 353 354 354 356 356 354 352 350 349 348 346 344 343 343 342 342 340 340 339 338 336 335 334 334 336 335 334 334 333 333 333 331 333 337 335 333 332 330 329 330 325 317 312 310 307 308 309 312 313 319 326 310 306 304 303 301 302 304 307 316 321 323 323 309 309 310 311 315 316 318
348 348 346 344 343 343 343 345 346 349 350 350 354 356 358 356 354 353 353 354 352 351 348 347 345 343 343 343 341 339 339 339 339 337 335 334 334 334 333 333 333 332 333 332 334 336 336 335 333 332 333 331 329 327 328 330 329 326 324 317 315 316 311 313 320 323 315 318 317 318 318 312 313 314 316 312 315 315 317 316 316 317 318 318 318
350 352 351 344 341 341 342 345 347 348 349 349 350 351 351 350 348 349 351 352 349 348 346 345 343 343 341 341 340 339 338 336 337 336 335 334 334 334 334 334 333 334 334 334 336 336 335 333 331 332 331 331 329 330 332 333 333 330 329 326 326 324 322 324 327 328 329 327 324 314 314 321 321 321 320 322 321 321 319 318 318 318 317 317 315
345 348 351 348 346 347 348 348 349 350 350 350 348 347 348 349 348 350 353 351 348 345 347 344 342 341 339 340 339 338 337 337 336 339 334 332 337 336 335 337 340 339 339 338 339 337 336 335 333 332 331 331 332 332 335 325 341 321 335 329 330 328 328 330 316 312 327 326 326 321 321 319 319 318 318 318 317 317 317 317 318 318 317 316 315
345 345 345 345 348 348 347 346 348 350 348 347 346 346 346 344 347 350 350 349 347 346 345 342 341 340 339 338 338 337 338 337 337 338 334 322 303 295 305 329 331 311 302 297 305 333 330 334 334 338 334 333 331 333 307 300 298 295 295 296 298 297 303 315 307 307 320 323 322 319 319 318 318 317 316 316 315 315 316 316 316 314 314 313 313
341 341 344 345 345 344 344 344 344 345 343 343 344 344 345 344 348 349 349 349 348 344 342 341 340 340 337 339 338 338 339 338 338 336 335 333 329 318 295 293 300 302 298 293 293 295 301 306 327 332 316 300 302 300 298 297 295 294 294 294 296 295 296 296 300 317 319 320 319 318 317 317 317 316 315 314 315 314 316 314 315 315 314 313 312
Wind_Speed
15 16 17 17 17 15 14 13 13 14 14 14 14 15 14 13 13 13 11 12 11 9 9 9 9 9 8 9 9 8 8 8 7 7 8 7 6 6 5 5 5 6 5 5 5 6 6 6 6 5 5 4 4 3 2 2 1 2 3 3 4 4 4 3 3 4 3 4 2 2 2 2 2 1 1 1 0 0 1 1 2 2 3 3 3
16 15 16 17 15 17 15 13 14 16 15 15 15 15 14 15 14 13 12 12 12 11 10 10 9 9 8 9 9 8 8 8 8 8 7 6 6 6 6 6 6 6 6 6 6 6 6 5 5 5 4 4 3 1 0 1 2 3 2 3 3 3 3 3 2 3 4 2 2 2 2 2 1 2 2 2 0 1 1 2 1 3 5 4 3
15 16 18 17 19 18 16 15 15 16 16 16 15 15 15 15 14 13 12 12 12 12 10 10 10 9 9 8 9 8 8 7 7 6 6 7 6 6 6 6 6 7 7 7 7 7 7 6 6 5 5 3 3 3 2 2 2 2 3 3 3 3 3 2 2 4 5 1 1 4 2 3 3 2 1 2 1 1 1 3 4 5 5 3 2
17 18 18 18 19 18 16 15 15 15 15 15 16 17 14 13 14 14 13 13 12 12 11 11 11 10 10 8 8 8 7 7 8 7 7 7 7 6 7 7 8 7 6 6 5 5 6 6 4 4 4 3 2 2 2 2 2 3 3 3 3 5 4 1 1 1 4 2 4 2 2 4 3 4 2 0 1 3 2 4 3 3 5 4 4
17 18 18 18 19 19 19 17 16 15 15 15 16 15 12 15 15 15 13 13 12 12 12 11 10 9 8 8 8 8 8 7 7 7 8 7 7 8 8 8 7 6 5 5 5 5 5 5 4 5 4 3 2 2 2 3 3 4 3 3 3 3 3 2 1 2 2 3 5 3 4 5 2 3 3 3 3 4 3 4 4 2 4 4 3
18 19 19 19 19 19 19 18 17 16 16 15 15 16 15 14 15 15 13 12 13 14 13 11 10 9 9 9 9 9 8 8 9 8 8 8 8 7 8 8 6 6 5 5 5 5 5 6 6 5 4 3 2 2 2 3 3 3 2 3 2 2 4 2 3 1 3 3 3 4 3 4 5 4 4 1 4 2 3 0 1 2 3 2 2
18 18 18 19 19 19 20 19 18 18 16 15 15 15 16 15 15 15 14 12 12 13 14 11 12 11 11 11 10 9 9 8 7 7 6 6 6 6 5 5 6 6 6 7 7 6 6 6 6 4 3 2 2 2 3 4 3 2 2 2 2 1 2 3 2 3 0 3 3 3 3 3 3 4 3 2 3 1 5 3 4 2 1 0 2
17 18 18 18 19 20 20 20 18 18 17 16 15 15 16 16 15 15 13 13 12 12 13 13 12 12 11 11 10 10 10 8 8 7 7 7 6 7 5 5 6 7 7 7 8 7 7 7 6 5 4 4 3 3 3 3 1 2 2 2 1 2 2 3 3 3 3 2 0 2 1 1 2 1 2 4 4 4 4 3 3 3 2 2 4
19 17 19 19 19 20 19 19 19 19 18 16 16 15 15 15 15 15 14 13 12 14 13 14 13 12 11 11 11 10 10 9 8 8 8 7 8 7 6 6 6 7 8 8 8 8 7 7 6 6 5 4 4 4 4 3 4 3 3 3 3 2 2 2 2 2 3 2 2 1 0 1 1 1 1 2 4 3 4 2 2 1 4 3 1
19 19 18 19 19 19 19 19 19 18 17 16 16 15 15 14 15 16 16 13 13 14 13 14 14 12 12 12 12 11 9 9 9 8 8 7 8 8 7 6 6 7 8 8 8 8 8 7 7 7 6 6 5 5 4 4 4 4 4 4 3 2 1 2 2 1 2 2 1 1 1 1 1 2 2 2 2 2 4 5 4 3 3 1 2
18 19 19 19 19 19 19 19 18 18 17 17 16 15 15 15 16 16 16 13 14 14 15 15 14 13 12 13 13 13 13 11 10 9 8 8 8 8 7 7 7 8 8 7 8 9 9 8 8 7 7 6 5 4 5 5 5 4 4 3 3 3 2 3 3 2 2 2 2 2 2 3 2 3 2 3 3 3 4 5 5 4 6 5 2
18 18 19 19 18 19 18 19 19 19 18 18 17 16 15 15 14 16 16 16 14 14 15 15 14 14 14 14 14 13 13 11 11 11 10 9 9 8 8 7 8 8 8 7 8 10 9 8 8 8 6 6 6 5 5 4 4 3 3 3 3 3 3 3 3 3 4 3 4 4 4 4 3 3 3 3 3 4 4 5 5 5 5 4 2
18 17 17 17 18 18 19 19 18 19 18 19 18 17 16 15 16 16 16 16 15 15 16 16 15 15 14 14 14 12 13 13 12 12 11 11 9 10 9 8 8 8 8 8 9 10 9 8 8 7 6 6 5 5 4 4 4 3 4 4 4 4 4 4 4 5 4 4 4 3 3 3 2 3 3 4 3 3 4 5 6 6 7 6 6
19 18 18 18 17 18 19 18 18 17 19 19 18 17 15 14 16 17 17 16 15 15 16 16 16 15 14 13 12 12 13 13 13 12 11 10 10 10 10 9 9 9 9 9 8 9 9 8 8 8 7 6 6 6 5 5 5 5 5 5 6 5 5 5 5 5 4 5 4 3 4 4 4 4 4 4 5 5 6 6 7 7 8 8 6
18 18 19 19 19 20 18 18 18 17 19 19 17 17 15 15 16 17 17 17 17 16 15 16 15 15 14 13 12 13 13 13 12 11 11 11 10 11 10 9 8 8 8 9 8 8 9 8 8 8 7 7 7 6 6 6 6 6 5 6 6 5 6 5 5 6 5 5 5 4 4 4 4 4 4 5 5 6 6 7 7 8 9 9 8
19 19 20 20 20 19 18 18 18 17 19 18 18 16 16 16 16 17 17 17 16 16 16 16 15 13 15 14 15 15 12 12 11 11 10 11 11 10 9 9 8 8 8 8 8 8 9 9 9 9 8 8 7 7 7 7 7 7 6 6 7 5 5 6 6 6 7 7 6 6 6 6 5 5 6 6 6 6 6 6 6 7 8 10 8
19 20 19 20 20 20 19 19 18 19 18 18 18 18 19 17 16 17 17 16 17 17 16 15 15 15 16 16 15 16 16 15 13 13 13 12 11 10 9 9 8 7 7 7 8 8 8 8 8 8 8 8 8 8 8 7 7 7 7 7 6 6 6 6 6 6 6 7 7 7 7 6 6 6 6 6 6 6 6 6 6 7 7 8 10
19 19 19 21 22 23 21 20 21 20 20 20 20 19 18 18 18 18 17 18 17 17 17 16 16 16 15 16 16 16 15 15 13 12 12 11 9 9 9 8 9 8 7 7 8 9 9 9 8 8 8 9 8 8 8 8 8 7 7 6 6 6 6 5 6 6 6 6 7 6 6 6 5 6 6 6 6 6 7 7 6 6 5 8 8
17 19 18 18 19 19 20 21 22 21 20 20 19 19 17 17 18 18 19 19 19 16 15 14 15 13 13 15 17 17 14 12 13 13 12 12 11 9 9 8 8 8 8 8 8 8 9 9 9 9 9 9 9 8 8 8 8 7 6 6 7 6 6 7 6 6 6 6 7 7 6 6 6 7 7 6 6 6 6 6 6 5 6 7 7
17 17 18 18 20 22 22 22 22 21 20 19 20 18 20 19 18 18 18 17 17 17 15 15 15 14 13 14 16 16 13 13 14 13 13 12 11 10 10 9 9 9 8 9 9 9 9 10 10 10 10 10 10 9 9 8 8 7 6 6 6 7 7 7 7 6 6 6 6 7 7 7 7 7 6 6 6 6 6 6 6 6 6 7 7
16 17 18 20 21 21 21 21 20 20 19 19 19 20 20 18 19 20 19 19 19 18 17 15 14 15 15 15 15 14 15 15 15 13 14 11 10 10 10 10 9 9 10 11 11 11 11 11 11 10 10 9 9 9 8 8 8 8 7 6 7 7 8 8 7 7 7 7 7 7 8 8 7 8 7 7 7 7 6 6 6 6 7 6 7
17 17 18 18 18 19 19 18 18 19 19 20 19 19 20 20 19 19 19 19 19 18 16 15 14 14 16 15 15 15 15 14 14 15 16 12 11 11 11 11 11 11 10 11 10 10 11 12 11 10 9 9 9 9 9 8 8 8 8 7 7 8 8 8 7 7 7 6 6 8 8 8 8 8 7 8 7 6 6 7 6 6 7 7 6
17 17 17 16 16 16 17 19 20 20 19 20 19 18 19 20 19 18 19 19 19 19 17 15 14 14 16 15 15 14 13 14 16 16 15 13 13 13 12 12 10 9 10 10 10 11 11 11 10 9 10 10 9 9 9 8 8 9 8 7 7 7 8 8 8 8 7 7 8 7 8 8 6 7 7 7 7 7 7 8 8 7 8 8 8
14 14 14 14 14 15 15 17 17 17 17 18 18 17 17 18 19 18 19 20 19 18 17 16 15 15 16 15 15 15 17 18 19 17 16 15 13 11 10 9 8 7 8 9 9 10 10 11 11 12 12 11 10 9 8 9 9 8 7 7 7 8 8 8 8 8 7 7 8 8 8 8 7 7 6 7 6 7 8 7 8 8 8 9 9
13 14 13 13 14 16 16 16 16 16 16 16 16 17 17 17 17 18 18 19 18 16 17 16 16 17 17 16 18 17 17 18 18 16 16 14 11 8 8 8 8 9 9 9 8 9 10 11 11 12 11 11 10 9 9 10 8 7 7 7 8 8 8 9 8 8 8 8 8 8 8 8 7 7 7 7 7 8 7 8 8 8 8 8 8
11 12 13 15 14 14 14 16 15 16 16 15 15 16 16 16 17 17 17 16 17 16 17 16 16 17 17 19 19 17 18 19 18 14 10 6 4 6 8 9 11 13 12 12 14 13 12 13 13 13 11 11 10 10 10 9 8 7 7 7 8 9 9 9 9 8 8 8 8 9 9 9 8 8 8 8 7 8 8 8 9 9 9 8 9
11 12 11 11 13 16 17 16 16 16 16 15 16 16 16 15 16 16 15 15 14 15 15 16 16 17 16 18 17 16 15 15 12 7 10 11 11 11 11 12 11 13 14 13 14 13 13 13 14 13 13 12 10 8 7 7 7 7 7 7 9 9 9 8 8 9 9 9 9 9 9 9 9 9 9 8 8 8 7 9 9 9 9 9 9
10 13 14 16 15 15 16 17 16 16 16 15 15 15 15 15 15 15 15 14 12 13 14 14 14 14 14 15 15 12 10 10 11 13 14 12 9 11 12 14 14 16 17 18 17 16 14 13 12 12 12 10 10 9 7 7 7 7 7 7 8 8 9 9 9 9 10 9 10 10 10 10 10 9 9 9 8 7 7 8 7 8 8 9 10
13 14 15 14 15 16 16 16 16 16 17 16 15 15 14 13 13 13 14 14 12 12 13 14 13 12 12 12 11 11 11 11 13 11 12 9 12 16 18 18 16 17 14 13 12 13 12 12 11 11 11 10 7 7 7 7 7 7 6 7 8 9 10 11 11 10 10 10 10 10 10 10 10 9 8 5 5 4 5 7 8 8 9 10 11
14 15 16 16 16 15 15 16 16 17 17 16 15 14 15 15 14 14 13 13 12 12 13 13 13 12 10 11 11 11 13 13 14 14 15 17 18 17 15 13 12 13 10 11 13 14 14 14 13 13 13 11 9 8 9 12 7 5 5 6 7 9 12 12 11 11 11 11 11 10 10 12 8 4 4 5 7 7 6 7 8 8 10 11 11
13 14 14 14 14 15 15 16 17 17 17 16 14 14 14 15 14 14 13 13 13 12 13 13 12 11 10 11 11 12 14 13 14 14 14 15 15 11 11 10 11 11 12 13 13 15 16 16 16 15 14 11 8 8 14 11 10 6 3 5 9 10 12 12 12 11 11 10 10 10 10 10 7 6 7 9 11 11 10 10 11 11 10 9 10
13 14 14 14 15 16 18 19 18 18 17 15 15 15 15 15 14 14 13 13 13 13 12 12 12 11 11 12 11 13 14 15 15 16 15 15 14 14 13 12 11 12 11 11 13 14 15 16 15 16 14 11 9 11 12 11 10 10 9 6 8 10 11 12 11 11 10 9 10 10 10 6 7 6 5 8 11 12 11 11 11 11 12 12 13
13 14 15 15 17 18 19 18 16 16 16 16 15 14 13 13 13 12 11 12 13 13 12 11 11 11 11 11 13 14 15 17 17 17 15 13 14 15 15 13 13 11 10 12 13 13 12 12 12 13 13 12 9 11 13 13 12 12 9 8 7 10 12 12 12 11 12 11 9 9 8 7 6 8 9 10 9 8 11 12 11 10 12 15 15
11 12 13 13 12 12 13 15 15 16 16 15 14 12 11 11 11 11 11 11 12 12 11 11 11 12 11 11 13 14 15 17 17 16 15 15 16 17 16 14 11 11 12 13 14 15 13 13 12 11 9 9 9 11 12 12 11 9 9 8 6 9 10 12 12 11 11 10 9 8 8 8 7 7 6 7 7 7 6 6 8 9 10 12 16
9 11 13 13 13 12 11 13 14 14 14 13 13 12 11 11 11 11 11 10 11 11 11 11 11 11 11 11 13 13 14 16 16 17 15 15 16 16 15 13 11 12 13 14 14 13 13 11 10 9 9 8 7 9 12 11 9 8 7 5 4 6 9 10 10 10 11 10 9 4 7 10 7 6 4 3 6 5 5 6 8 9 10 11 11
7 7 9 11 13 13 12 12 11 11 12 12 12 12 12 12 12 12 11 11 11 11 11 10 11 11 11 12 13 13 13 14 15 15 17 16 16 15 14 11 10 11 10 10 10 10 13 11 10 10 9 9 8 8 9 9 8 8 7 3 5 6 8 10 11 12 8 8 4 5 7 9 9 7 6 5 3 3 5 7 9 10 10 10 9
10 10 10 10 10 11 12 13 12 12 12 12 12 13 12 12 12 11 11 11 11 11 10 10 10 11 11 12 12 12 13 14 14 15 15 16 16 14 11 9 10 11 12 13 15 14 12 11 11 10 10 9 10 12 13 10 9 7 5 4 5 6 7 10 10 8 10 9 5 6 7 8 7 4 8 7 5 0 6 7 9 9 8 9 8
10 9 11 13 14 15 15 14 15 13 13 11 12 12 12 11 11 11 11 10 10 10 9 9 10 11 10 11 11 11 12 12 13 14 14 14 13 11 11 9 11 7 8 9 8 8 9 10 10 10 11 11 10 10 13 11 10 10 7 4 3 3 6 8 8 8 9 3 4 7 7 7 7 3 9 7 5 3 6 7 8 8 9 8 8
10 11 11 13 13 14 17 16 15 14 12 12 13 13 12 10 10 10 10 9 9 8 9 9 10 9 9 9 10 10 11 11 12 11 10 11 8 7 6 6 6 6 7 7 7 6 6 7 8 9 10 11 9 9 13 9 8 10 6 3 3 4 6 8 7 8 5 7 5 7 11 5 3 8 9 7 4 5 6 7 6 7 8 9 8
10 11 12 12 13 13 14 16 15 13 12 12 12 11 11 9 9 8 9 8 8 7 8 8 8 9 9 8 8 9 9 9 8 8 7 7 6 7 9 9 11 9 8 8 8 8 8 7 8 8 7 8 9 5 8 12 12 13 12 7 6 5 6 7 6 6 8 7 8 6 7 7 8 7 8 7 5 5 5 5 7 8 9 10 7
12 14 15 14 13 13 14 15 14 13 12 11 11 11 10 9 9 8 8 8 8 7 7 8 8 8 8 8 7 7 7 7 6 6 6 6 6 8 9 9 10 9 8 8 8 8 9 9 10 9 8 8 6 7 8 12 11 14 13 9 6 6 5 4 3 7 9 8 7 7 4 9 9 7 6 6 5 6 6 4 6 7 4 4 7
13 13 13 13 13 14 16 16 14 14 13 12 12 12 11 11 9 9 9 8 8 7 7 7 7 7 7 7 6 7 6 7 7 7 7 7 7 8 8 9 10 10 10 11 11 10 10 11 10 11 8 5 6 8 5 7 9 10 12 11 8 7 6 6 7 8 8 8 8 5 3 9 10 7 6 6 6 6 6 6 1 5 5 7 5
16 14 13 13 14 14 15 16 14 14 12 11 13 13 11 10 10 9 8 8 7 7 7 6 7 7 7 7 6 8 8 6 6 7 8 8 7 9 9 10 10 11 12 13 13 12 12 11 10 8 5 5 5 4 5 6 9 9 9 9 7 7 4 6 8 7 9 9 4 2 8 11 9 8 7 6 7 6 9 3 4 2 2 2 5
18 17 16 15 15 14 14 14 12 12 11 11 12 12 11 10 11 10 10 10 9 8 8 8 8 8 8 7 7 7 7 7 7 8 9 9 9 8 9 8 8 10 10 11 11 10 10 10 9 6 5 5 5 4 5 6 6 8 8 8 9 12 9 6 6 7 5 5 3 0 7 10 8 8 8 7 6 8 2 5 1 1 3 4 7
16 16 15 16 15 16 14 13 11 11 9 8 9 13 12 10 6 7 9 10 10 10 9 9 9 9 8 8 7 7 7 8 8 8 8 8 10 9 9 9 9 9 10 10 10 9 9 9 7 6 6 5 4 4 4 5 7 6 7 8 10 8 5 3 5 7 2 5 9 11 11 9 7 7 7 6 6 8 7 6 4 4 6 7 8
15 14 15 16 16 16 15 14 11 11 10 8 7 9 13 12 11 9 8 8 10 10 9 9 9 10 10 9 9 9 9 10 9 8 9 8 10 9 8 8 9 10 9 8 8 7 9 7 5 6 5 5 5 5 6 6 6 6 6 6 5 4 3 5 5 4 10 9 9 9 8 8 7 7 7 6 5 3 8 6 7 8 8 8 7
13 11 12 13 14 12 13 14 12 9 9 9 8 7 8 9 10 10 10 10 10 10 10 10 10 9 9 9 10 9 9 9 9 9 9 8 8 8 8 9 10 10 9 8 8 7 6 6 6 6 6 6 7 7 8 8 8 8 7 6 5 4 6 7 8 6 7 7 6 4 4 3 4 6 6 6 4 5 6 8 8 9 7 7 5
10 10 10 11 12 13 12 11 9 7 6 7 6 7 7 7 8 9 9 10 11 11 11 10 11 10 9 9 8 10 9 9 9 9 9 9 8 8 8 9 10 9 8 8 8 8 7 8 7 6 6 6 7 9 10 9 8 8 8 8 8 9 10 10 8 6 5 5 6 9 8 6 5 5 6 6 6 5 5 6 7 7 6 5 5
10 10 10 10 10 10 10 10 9 7 7 6 7 8 8 8 8 8 9 9 10 11 10 12 11 10 9 9 8 10 8 9 9 5 6 6 2 2 5 9 4 2 1 4 8 6 5 4 4 5 6 8 8 8 9 5 7 6 7 9 10 10 8 6 7 7 4 3 4 4 4 4 4 5 5 6 6 6 7 6 6 7 7 5 5
8 7 9 9 9 9 9 8 7 6 6 6 7 6 7 8 8 8 8 9 9 9 10 10 9 9 10 9 8 8 8 8 8 7 7 6 10 11 10 3 4 7 9 9 9 3 2 1 4 4 1 5 8 6 14 15 13 12 12 13 12 13 12 9 8 6 3 5 6 6 5 5 4 6 7 7 7 7 7 7 7 4 5 8 6
6 7 7 8 7 7 7 8 6 5 5 5 5 6 6 7 7 8 8 9 9 8 8 8 8 8 8 8 8 8 8 7 7 8 8 7 6 8 14 13 9 6 7 8 8 7 6 4 2 4 6 12 12 13 14 14 13 12 12 12 12 11 11 10 8 5 5 5 6 6 5 6 7 7 7 7 7 7 6 7 7 7 7 6 6
Wind_Direction
193 192 194 194 194 193 195 196 199 201 201 201 202 204 205 207 205 210 207 208 209 204 204 207 207 208 210 214 219 214 217 212 213 218 225 229 226 213 206 220 219 222 225 226 202 219 230 234 223 212 214 216 237 239 250 314 348 299 292 269 279 278 259 230 244 268 291 269 220 234 149 194 171 143 246 224 301 67 27 14 8 13 42 20 49
194 189 193 195 196 194 195 198 200 201 201 202 202 204 205 207 208 208 207 208 211 212 212 212 212 213 212 217 223 223 217 216 216 217 220 225 207 202 202 214 210 204 210 214 215 217 222 222 213 210 204 208 208 156 86 198 229 244 256 264 235 269 276 281 308 266 240 292 294 195 156 163 276 201 207 329 257 341 115 107 73 43 24 19 19
195 192 192 196 197 197 196 200 202 206 204 204 205 204 205 208 210 209 210 209 211 211 212 214 215 217 219 221 224 228 225 229 235 235 234 231 217 207 211 209 209 208 207 208 220 219 223 215 208 204 200 165 171 187 201 214 227 244 238 253 255 221 271 281 274 260 304 357 312 272 201 230 174 246 204 222 330 80 24 62 29 46 55 35 5
197 193 194 196 197 199 198 200 202 203 205 205 205 207 207 208 209 210 212 213 214 212 211 214 215 215 218 224 225 234 235 227 237 235 232 230 224 215 209 212 217 230 226 227 230 236 228 222 212 185 174 168 191 207 202 221 197 220 226 226 265 280 238 212 258 263 297 304 243 270 328 299 249 187 165 269 316 22 33 63 72 79 73 38 34
199 197 197 195 197 199 199 199 200 201 203 205 205 205 206 207 208 209 211 212 213 211 208 211 210 208 206 212 223 225 233 234 232 229 224 226 230 215 217 218 225 234 232 223 224 226 226 216 200 185 181 180 178 213 223 226 215 221 223 231 235 284 298 286 235 294 293 301 314 277 237 214 277 103 269 163 246 209 107 107 103 100 66 53 41
199 199 199 198 198 198 199 199 202 202 204 205 204 205 205 206 207 208 211 212 212 212 209 208 211 209 199 208 217 225 228 223 224 225 223 220 228 226 216 219 225 225 216 216 214 216 210 207 197 196 193 187 195 235 239 245 234 247 207 246 240 232 290 297 287 213 289 287 278 288 325 347 338 20 292 174 288 280 150 332 20 41 91 84 57
202 203 201 201 198 198 199 200 202 204 204 203 203 204 204 207 206 206 209 210 210 210 207 210 216 218 220 222 223 223 225 225 225 231 235 226 225 229 222 204 208 213 207 207 209 206 206 202 197 204 200 206 208 226 228 233 221 213 218 220 245 230 230 271 269 258 235 278 267 289 310 319 350 320 325 318 216 147 319 259 132 112 342 131 119
202 203 202 203 199 199 200 198 201 205 203 202 203 204 205 206 206 207 209 211 208 207 207 209 218 217 218 222 224 226 226 226 215 219 223 229 222 227 216 206 203 212 213 203 205 199 199 198 199 204 203 223 214 220 239 247 254 213 217 219 215 206 218 255 280 307 279 258 45 285 240 17 4 338 342 339 326 300 175 246 213 136 180 24 348
204 201 202 200 199 199 199 199 201 205 203 202 203 204 205 206 208 208 210 210 210 206 205 208 214 216 217 220 223 224 226 227 221 216 220 218 223 216 215 207 197 210 215 209 205 202 197 199 199 202 207 217 215 224 223 209 213 219 210 202 205 204 220 247 256 272 268 240 178 210 294 237 203 278 70 262 307 299 271 223 258 304 272 160 58
204 205 203 200 198 196 197 198 199 202 204 203 204 203 204 204 206 208 210 210 209 206 206 208 209 211 215 219 222 222 222 225 226 216 215 215 219 216 206 201 209 206 215 214 206 206 200 198 202 207 212 221 216 225 221 223 213 220 213 219 222 225 199 223 244 245 264 334 147 172 190 47 308 277 260 253 237 257 292 299 285 259 248 225 219
201 203 202 201 198 195 193 196 196 198 202 201 203 204 203 204 205 207 208 208 206 207 208 211 209 209 213 216 220 222 221 222 221 220 217 213 216 214 209 205 215 216 213 203 213 209 202 202 205 209 223 222 217 226 222 223 207 205 213 200 205 222 204 212 230 228 227 225 199 187 203 217 235 270 279 291 283 264 272 284 288 323 334 319 259
197 200 201 199 198 196 193 194 193 193 194 197 200 200 203 204 203 205 206 205 204 204 206 211 211 210 213 215 221 224 225 223 220 220 213 213 216 216 215 214 216 216 217 210 210 211 208 211 216 220 221 221 218 219 227 222 238 194 196 190 198 206 208 225 236 228 223 210 234 203 207 233 208 234 249 228 250 282 300 291 294 290 274 272 285
195 197 198 197 196 195 194 191 189 189 191 193 196 199 200 201 201 202 205 202 203 203 205 207 210 211 211 214 219 226 228 227 224 223 216 218 217 216 210 209 210 214 210 216 212 214 205 211 214 219 216 218 219 217 218 228 236 218 192 200 205 202 211 216 220 224 219 226 223 237 241 261 241 225 256 268 259 266 264 278 284 305 296 286 279
195 193 194 196 195 194 194 192 189 188 190 190 194 198 196 198 199 202 204 200 199 202 203 206 209 210 211 212 215 223 226 228 227 223 219 216 215 218 217 213 213 215 220 217 212 204 205 206 211 214 212 208 212 217 219 212 214 218 202 209 207 210 219 216 230 232 231 226 234 250 240 232 252 252 252 251 258 256 264 273 295 293 291 292 287
193 191 193 193 191 191 192 193 191 190 190 191 192 195 194 196 197 200 202 200 198 199 200 205 206 206 205 207 214 221 224 224 225 225 223 219 217 218 219 222 224 221 221 216 199 193 198 202 206 212 203 204 208 211 210 208 206 210 215 209 221 206 216 225 230 238 237 241 241 245 262 271 272 268 273 276 275 281 285 288 292 297 298 301 307
195 192 192 191 187 188 191 192 193 193 192 193 193 191 195 196 198 199 201 199 198 198 201 202 203 203 203 204 212 219 221 223 223 222 222 217 214 216 217 221 225 224 220 199 189 189 194 196 203 205 198 200 206 207 208 208 202 209 212 212 220 210 219 225 239 243 244 247 254 256 254 266 271 270 271 270 271 277 280 281 281 282 293 296 296
196 195 192 188 185 188 190 190 191 193 194 195 192 191 194 194 196 198 199 199 198 199 201 201 202 202 203 205 210 216 219 221 222 221 222 216 211 215 219 221 220 199 193 189 189 188 192 200 200 201 197 203 204 202 206 213 206 210 210 213 219 223 219 234 245 248 257 257 249 245 259 262 264 271 274 274 275 275 270 270 270 278 288 288 294
197 197 194 189 188 189 189 190 190 191 192 193 192 192 192 194 195 195 196 198 200 199 199 199 201 204 204 205 209 214 216 220 222 222 219 215 200 205 213 215 211 191 192 188 190 193 193 197 201 203 201 204 206 200 203 208 208 213 213 214 219 229 230 231 240 254 258 262 268 274 266 264 261 263 264 266 265 264 264 264 270 264 264 278 291
197 198 196 196 194 191 190 191 191 191 190 191 192 191 192 194 196 197 197 198 199 200 200 201 201 202 205 204 208 213 210 215 220 220 216 213 196 190 196 199 195 188 187 188 190 195 198 196 202 203 203 204 204 205 200 205 205 213 213 216 218 227 236 238 238 240 250 254 257 261 262 265 271 272 274 272 268 263 264 266 267 266 262 259 277
198 197 197 197 198 196 193 191 191 190 189 190 192 194 196 194 195 199 199 197 197 198 197 200 200 202 201 201 206 208 204 216 221 217 214 206 190 185 183 175 184 184 187 186 190 199 202 203 202 206 204 204 203 205 202 204 206 213 218 223 224 219 230 237 242 240 243 244 248 249 252 260 264 267 270 271 273 269 266 270 271 271 264 263 262
197 197 198 199 200 200 197 193 191 189 188 192 193 196 199 196 196 197 197 198 198 198 198 198 198 200 200 198 197 198 204 214 220 214 215 196 182 177 181 180 179 185 187 188 190 193 200 206 209 205 207 205 206 209 206 204 207 213 219 233 252 245 240 243 237 239 239 242 243 248 252 256 261 264 264 269 267 258 258 268 268 262 264 262 262
196 198 200 202 201 200 197 192 191 190 190 194 196 196 199 200 199 198 199 200 201 199 199 197 197 196 197 196 195 193 200 205 208 213 213 191 179 180 178 177 184 189 184 188 196 196 197 200 205 207 212 212 209 215 216 210 209 213 219 226 237 239 244 244 246 242 236 240 243 248 253 257 253 256 264 263 260 272 278 269 261 259 261 266 259
199 200 201 200 198 197 193 190 191 192 191 193 195 198 198 200 202 200 201 202 203 200 196 195 194 195 195 197 197 195 191 201 212 216 204 190 186 182 176 178 187 188 188 195 197 203 202 200 198 193 207 214 212 217 221 222 215 217 224 230 237 241 239 241 239 240 242 242 248 253 255 254 255 254 249 257 267 276 280 280 281 278 270 268 268
204 207 204 198 192 189 188 189 191 192 191 192 194 197 199 200 201 202 203 203 203 202 196 191 192 193 193 194 196 195 199 202 207 206 201 198 193 183 168 171 177 189 187 191 198 204 203 200 194 204 197 202 203 211 220 224 221 220 224 231 241 243 241 240 244 250 248 247 252 255 256 259 260 258 255 262 273 274 271 273 274 269 264 266 267
203 205 199 191 186 183 186 185 186 189 192 192 193 195 198 200 201 203 204 203 203 201 198 193 194 194 192 193 198 197 195 198 202 204 201 197 188 170 151 155 171 193 198 189 188 198 196 197 199 205 203 203 197 197 214 224 221 220 223 230 235 239 241 241 242 245 250 258 261 260 260 259 255 255 257 259 263 268 268 270 274 275 271 269 268
200 200 192 188 183 179 180 182 185 187 190 191 192 194 197 199 202 204 204 202 201 200 200 196 195 196 195 197 199 195 194 197 201 202 191 156 144 128 143 165 183 191 190 188 190 194 194 200 201 200 198 203 199 198 202 210 217 216 220 231 236 239 242 244 243 245 248 250 252 253 253 251 253 253 260 265 273 278 275 273 275 274 274 272 267
193 194 190 180 180 183 181 180 184 186 187 188 191 194 196 197 201 204 203 200 198 199 198 199 198 200 199 200 198 194 191 189 183 147 116 136 155 170 173 183 185 193 194 195 198 189 191 197 195 193 190 190 197 193 186 190 206 219 224 230 237 240 243 247 247 248 252 251 250 248 247 249 251 252 259 266 272 274 276 277 273 274 276 278 279
186 186 188 188 185 181 181 183 185 188 189 190 192 194 195 196 198 199 200 198 195 197 194 200 202 203 201 201 200 188 173 175 154 142 134 128 169 181 190 192 188 195 197 194 194 185 183 185 187 186 183 187 186 174 171 185 193 204 218 228 238 244 249 248 249 251 253 257 253 248 247 247 247 248 255 265 268 271 281 281 281 283 284 284 283
190 195 193 189 185 186 185 184 187 188 190 192 193 195 195 195 197 197 199 198 191 192 195 197 201 203 202 195 198 191 182 159 129 127 117 159 197 196 200 198 193 197 197 196 186 176 177 179 179 178 178 179 169 166 176 179 191 197 208 230 240 248 251 251 252 255 253 253 255 257 258 258 260 259 239 256 288 333 289 280 284 282 285 289 291
193 197 196 193 190 184 184 183 187 191 191 192 193 192 192 192 193 193 197 196 191 191 195 198 199 200 195 203 190 153 161 156 151 151 159 188 208 207 209 201 196 194 183 184 187 179 175 180 182 183 187 182 185 178 179 183 177 171 200 234 250 255 259 257 255 255 256 254 256 257 252 256 257 224 192 220 242 246 236 254 270 276 283 286 287
195 195 199 191 186 184 181 184 189 191 191 191 189 188 190 194 193 192 190 193 190 189 193 197 195 194 192 190 167 159 159 169 159 169 185 201 209 213 213 212 202 196 192 189 186 181 186 184 184 186 189 187 183 184 172 164 184 176 185 257 270 271 267 262 255 251 253 256 260 261 263 248 196 202 219 224 228 223 228 229 239 255 265 273 284
197 196 192 186 186 185 185 187 188 187 187 188 187 187 189 193 189 191 187 188 192 189 190 192 201 198 189 192 187 164 166 172 168 182 197 201 209 214 213 210 207 201 194 188 191 189 187 186 188 190 188 185 188 167 172 172 163 175 193 224 257 264 267 267 261 255 253 258 257 259 257 239 231 213 227 229 219 220 224 227 234 242 248 247 247
195 188 190 191 190 189 188 186 183 185 187 189 186 186 188 188 186 186 185 182 185 190 190 193 195 194 195 194 189 166 173 179 182 189 199 202 209 214 214 208 203 196 186 190 194 190 189 187 186 186 186 183 187 168 171 178 189 191 184 194 236 258 265 264 263 256 257 255 256 254 246 232 232 209 231 243 254 237 205 213 226 226 235 242 241
199 196 199 198 191 186 186 186 184 184 184 184 186 185 181 181 179 174 180 183 184 190 190 190 190 189 196 193 189 168 172 181 193 194 195 203 211 217 217 210 200 188 190 195 198 194 186 185 180 177 172 174 174 165 175 190 200 185 182 198 240 257 261 258 256 258 260 259 254 248 244 249 251 239 231 240 245 247 262 232 221 237 247 238 222
214 202 195 188 187 180 175 180 187 185 179 179 178 179 170 170 175 178 182 186 186 189 189 188 191 193 188 191 191 176 179 188 193 200 198 204 213 220 220 212 202 194 193 193 194 190 190 176 162 165 172 168 174 159 194 196 184 179 196 209 232 252 265 272 267 260 254 256 260 285 298 275 268 258 253 252 244 261 259 261 273 279 281 288 293
215 209 191 174 176 171 169 171 174 175 173 174 171 174 178 182 182 178 181 182 183 185 186 187 185 189 190 191 193 180 190 194 195 200 208 209 212 218 215 203 197 196 197 192 192 186 181 164 164 164 159 168 181 175 206 185 174 181 169 172 202 227 252 261 263 257 257 258 222 212 236 268 262 252 105 90 56 299 268 269 269 274 282 286 288
205 187 174 164 163 167 163 156 158 166 164 172 175 181 180 173 173 171 175 179 180 182 185 183 186 189 190 193 193 180 191 196 199 203 208 215 220 218 207 191 191 189 191 194 193 179 158 157 164 164 166 179 195 182 182 181 181 176 148 197 204 230 245 258 265 282 274 248 218 210 218 235 241 231 124 112 111 358 262 267 273 280 285 289 287
191 180 171 166 163 157 152 161 158 172 177 181 172 168 166 164 164 164 171 175 177 178 182 181 185 187 185 189 184 182 197 202 205 207 211 215 219 221 220 207 210 187 195 192 165 163 160 158 160 170 183 193 202 168 176 183 185 174 166 177 202 241 270 277 277 272 264 290 274 256 251 254 249 150 125 119 133 200 259 266 273 278 287 285 284
179 179 169 166 167 169 161 166 167 172 165 165 161 156 152 153 158 162 163 167 172 170 175 176 176 173 174 184 187 184 198 202 210 211 212 210 196 176 181 157 155 126 125 127 133 128 143 168 173 182 184 199 204 178 180 178 131 110 130 176 191 235 261 275 285 271 259 241 228 208 214 259 37 104 124 128 175 230 258 265 279 285 279 282 285
147 153 149 146 148 154 158 154 151 141 143 146 143 139 133 137 146 153 154 158 163 159 163 165 160 163 167 174 181 192 203 203 202 199 194 203 170 185 197 182 190 173 146 143 148 154 168 187 196 197 186 201 207 167 135 138 152 140 154 174 200 207 225 241 256 278 285 267 253 229 149 103 103 112 122 145 184 246 271 269 277 282 283 282 330
136 129 131 132 138 143 145 135 122 129 135 134 129 125 126 130 137 144 144 145 141 141 147 146 147 153 156 167 180 183 190 189 175 162 162 172 177 192 187 177 170 173 144 149 164 177 187 193 194 194 198 194 177 169 175 171 160 148 162 171 193 210 227 225 246 286 278 267 261 236 178 131 127 134 151 168 192 212 260 280 264 276 313 6 341
119 131 139 136 131 125 122 118 121 124 125 125 123 120 124 127 132 133 136 130 132 137 138 139 142 145 153 160 166 157 154 123 123 130 131 157 174 172 167 168 187 180 166 170 179 188 196 204 201 199 197 190 168 182 169 156 150 144 150 173 199 216 217 234 251 250 264 273 249 221 154 134 137 154 181 183 196 209 227 252 3 48 5 357 337
121 120 117 118 116 114 111 115 121 119 117 122 122 122 127 136 131 125 119 119 123 126 128 130 132 142 150 151 146 143 136 122 147 169 177 169 163 178 176 180 185 181 181 184 188 196 201 200 197 193 164 161 168 173 125 143 148 152 165 179 210 238 271 257 249 243 241 244 227 228 103 129 145 172 188 184 200 206 217 258 76 7 27 303 278
112 110 106 99 95 95 96 95 97 107 117 120 124 126 132 131 135 139 135 129 130 131 129 130 132 138 141 136 136 141 132 137 156 163 167 172 180 180 178 183 184 183 186 186 189 189 191 187 187 171 170 165 157 159 136 141 160 177 172 182 206 224 251 258 274 261 250 257 253 83 121 138 157 182 195 193 199 211 255 75 241 271 263 255 266
101 103 102 100 100 100 99 97 99 102 101 111 125 123 119 122 138 139 138 138 138 138 137 137 137 135 134 132 138 134 128 139 151 161 162 168 171 172 179 179 182 192 194 188 188 186 188 189 183 171 165 166 160 177 167 163 169 168 161 181 200 189 211 282 272 246 271 62 79 94 119 146 163 180 182 187 204 222 235 219 222 235 251 259 248
96 101 104 107 108 109 109 110 111 112 115 124 131 136 140 144 147 146 146 139 133 132 135 139 137 139 136 140 138 138 141 147 152 158 163 164 168 172 175 175 190 194 192 189 184 188 196 190 203 194 176 181 181 184 193 172 179 165 170 153 127 141 173 237 287 66 87 103 106 112 125 143 157 166 183 204 240 203 181 203 214 232 252 248 265
83 89 104 105 107 107 109 111 112 119 126 131 135 128 123 134 142 147 144 140 136 137 136 138 137 133 135 138 142 147 150 148 154 157 166 169 172 184 182 188 196 193 190 191 188 189 183 187 197 198 190 177 179 190 198 195 186 179 173 147 149 165 205 214 203 162 152 140 142 163 101 77 73 178 241 340 309 141 194 209 221 219 244 268 269
72 75 87 99 105 109 110 108 108 109 107 107 107 112 121 131 138 140 134 135 140 144 143 141 138 136 139 144 146 143 148 153 158 164 165 172 167 185 186 194 199 194 191 190 194 188 194 199 197 178 182 188 188 202 208 202 182 173 164 160 173 183 187 198 209 169 181 155 146 129 141 184 174 203 211 221 229 241 262 272 281 289 286 275 279
64 61 68 77 84 89 97 103 103 104 100 100 106 116 126 129 138 135 138 142 137 137 136 139 139 140 138 144 146 156 163 160 162 123 62 46 37 196 190 184 80 6 298 221 192 175 176 177 178 179 186 201 205 213 215 165 132 124 143 174 186 191 188 169 47 59 153 186 228 246 266 255 252 255 260 253 243 229 245 245 253 270 280 274 265
63 64 66 67 65 72 80 89 97 102 105 109 108 120 136 146 139 138 143 135 137 139 143 142 144 143 140 146 154 165 161 161 161 140 121 94 69 62 32 20 87 39 41 29 26 55 50 99 187 190 220 213 232 204 106 101 101 89 79 73 67 61 56 81 92 56 305 251 253 270 259 265 251 255 256 265 276 278 278 272 284 273 263 270 276
71 79 70 69 69 66 73 79 87 95 105 110 123 136 145 137 135 141 145 142 146 146 145 139 142 141 139 150 155 159 151 167 157 155 156 150 144 69 52 47 50 57 46 35 47 34 29 355 358 159 102 52 60 95 105 103 103 99 94 91 89 94 100 116 138 161 205 223 241 259 251 253 247 251 266 276 276 279 282 277 274 286 292 278 262